Time,TemperatureF,DewpointF,PressureIn,WindDirection,WindDirectionDegrees,WindSpeedMPH,WindSpeedGustMPH,Humidity,HourlyPrecipIn,Conditions,Clouds,dailyrainin,SoftwareType,DateUTC
2013-03-17 00:00:00,18.9,10.4,29.86,SE,131,0.0,1.0,69,0.00,,,0.00,WeatherCatV1.13B119,2013-03-17 04:00:00,
2013-03-17 00:02:00,18.8,10.7,29.86,SE,131,0.0,1.0,70,0.00,,,0.00,WeatherCatV1.13B119,2013-03-17 04:02:00,
2013-03-17 00:03:00,18.8,10.7,29.86,SE,131,2.0,3.0,70,0.00,,,0.00,WeatherCatV1.13B119,2013-03-17 04:03:00,
2013-03-17 00:06:00,18.6,10.5,29.86,SE,130,2.0,2.0,70,0.00,,,0.00,WeatherCatV1.13B119,2013-03-17 04:06:00,
2013-03-17 00:11:00,18.5,10.4,29.86,SE,131,0.0,0.0,70,0.00,,,0.00,WeatherCatV1.13B119,2013-03-17 04:11:00,
2013-03-17 00:16:00,18.2,10.1,29.86,SE,131,0.0,0.0,70,0.00,,,0.00,WeatherCatV1.13B119,2013-03-17 04:16:00,
2013-03-17 00:22:00,17.9,10.1,29.86,SE,130,0.0,0.0,71,0.00,,,0.00,WeatherCatV1.13B119,2013-03-17 04:22:00,
2013-03-17 00:27:00,17.8,10.0,29.86,SE,130,0.0,2.0,71,0.00,,,0.00,WeatherCatV1.13B119,2013-03-17 04:27:00,
2013-03-17 00:32:00,17.6,9.8,29.86,SE,130,1.0,1.0,71,0.00,,,0.00,WeatherCatV1.13B119,2013-03-17 04:32:00,
2013-03-17 00:37:00,17.5,10.0,29.86,SE,131,0.0,0.0,72,0.00,,,0.00,WeatherCatV1.13B119,2013-03-17 04:37:00,
2013-03-17 00:42:00,17.3,9.8,29.86,SE,131,0.0,0.0,72,0.00,,,0.00,WeatherCatV1.13B119,2013-03-17 04:42:00,
2013-03-17 00:47:00,17.2,10.1,29.86,SE,130,0.0,0.0,73,0.00,,,0.00,WeatherCatV1.13B119,2013-03-17 04:47:00,
2013-03-17 00:52:00,17.0,9.9,29.86,SE,131,0.0,2.0,73,0.00,,,0.00,WeatherCatV1.13B119,2013-03-17 04:52:00,
2013-03-17 00:57:00,16.9,9.8,29.86,SE,131,0.0,1.0,73,0.00,,,0.00,WeatherCatV1.13B119,2013-03-17 04:57:00,
2013-03-17 01:03:00,16.8,9.7,29.86,ESE,110,1.0,1.0,73,0.00,,,0.00,WeatherCatV1.13B119,2013-03-17 05:03:00,
2013-03-17 01:08:00,16.7,9.6,29.86,ESE,110,0.0,0.0,73,0.00,,,0.00,WeatherCatV1.13B119,2013-03-17 05:08:00,
2013-03-17 01:13:00,16.6,9.5,29.86,ESE,109,1.0,1.0,73,0.00,,,0.00,WeatherCatV1.13B119,2013-03-17 05:13:00,
2013-03-17 01:17:00,16.6,9.5,29.87,ESE,110,0.0,0.0,73,0.00,,,0.00,WeatherCatV1.13B119,2013-03-17 05:17:00,
2013-03-17 01:23:00,16.3,9.2,29.87,ESE,110,0.0,0.0,73,0.00,,,0.00,WeatherCatV1.13B119,2013-03-17 05:23:00,
2013-03-17 01:28:00,16.2,9.1,29.87,ESE,110,0.0,1.0,73,0.00,,,0.00,WeatherCatV1.13B119,2013-03-17 05:28:00,
2013-03-17 01:32:00,16.2,9.4,29.87,ESE,110,0.0,1.0,74,0.00,,,0.00,WeatherCatV1.13B119,2013-03-17 05:32:00,
2013-03-17 01:37:00,16.3,9.2,29.87,ESE,110,0.0,1.0,73,0.00,,,0.00,WeatherCatV1.13B119,2013-03-17 05:37:00,
2013-03-17 01:42:00,16.4,9.3,29.87,ESE,110,0.0,2.0,73,0.00,,,0.00,WeatherCatV1.13B119,2013-03-17 05:42:00,
2013-03-17 01:47:00,16.1,9.3,29.87,ESE,110,1.0,2.0,74,0.00,,,0.00,WeatherCatV1.13B119,2013-03-17 05:47:00,
2013-03-17 01:53:00,15.9,8.8,29.87,ESE,110,0.0,0.0,73,0.00,,,0.00,WeatherCatV1.13B119,2013-03-17 05:53:00,
2013-03-17 01:58:00,15.7,8.9,29.88,ESE,110,0.0,0.0,74,0.00,,,0.00,WeatherCatV1.13B119,2013-03-17 05:58:00,
2013-03-17 02:03:00,15.5,8.7,29.88,ESE,110,0.0,0.0,74,0.00,,,0.00,WeatherCatV1.13B119,2013-03-17 06:03:00,
2013-03-17 02:08:00,15.3,8.8,29.88,ESE,110,0.0,0.0,75,0.00,,,0.00,WeatherCatV1.13B119,2013-03-17 06:08:00,
2013-03-17 02:13:00,15.2,8.7,29.88,ESE,110,0.0,0.0,75,0.00,,,0.00,WeatherCatV1.13B119,2013-03-17 06:13:00,
2013-03-17 02:18:00,15.0,8.5,29.87,ESE,110,0.0,1.0,75,0.00,,,0.00,WeatherCatV1.13B119,2013-03-17 06:18:00,
2013-03-17 02:23:00,14.8,8.6,29.88,ESE,110,0.0,2.0,76,0.00,,,0.00,WeatherCatV1.13B119,2013-03-17 06:23:00,
2013-03-17 02:28:00,14.6,8.4,29.87,ESE,110,0.0,0.0,76,0.00,,,0.00,WeatherCatV1.13B119,2013-03-17 06:28:00,
2013-03-17 02:33:00,14.6,8.7,29.87,ESE,110,0.0,2.0,77,0.00,,,0.00,WeatherCatV1.13B119,2013-03-17 06:33:00,
2013-03-17 02:38:00,14.4,8.5,29.87,ESE,110,0.0,1.0,77,0.00,,,0.00,WeatherCatV1.13B119,2013-03-17 06:38:00,
2013-03-17 02:43:00,14.2,8.3,29.88,ESE,110,0.0,0.0,77,0.00,,,0.00,WeatherCatV1.13B119,2013-03-17 06:43:00,
2013-03-17 02:48:00,14.0,8.4,29.88,ESE,110,0.0,0.0,78,0.00,,,0.00,WeatherCatV1.13B119,2013-03-17 06:48:00,
2013-03-17 02:53:00,13.7,8.1,29.87,ESE,110,0.0,0.0,78,0.00,,,0.00,WeatherCatV1.13B119,2013-03-17 06:53:00,
2013-03-17 02:58:00,13.5,7.9,29.87,ESE,110,0.0,0.0,78,0.00,,,0.00,WeatherCatV1.13B119,2013-03-17 06:58:00,
2013-03-17 03:03:00,13.4,8.1,29.87,ESE,110,2.0,2.0,79,0.00,,,0.00,WeatherCatV1.13B119,2013-03-17 07:03:00,
2013-03-17 03:08:00,13.2,7.9,29.88,ESE,110,0.0,0.0,79,0.00,,,0.00,WeatherCatV1.13B119,2013-03-17 07:08:00,
2013-03-17 03:13:00,13.1,7.8,29.88,ESE,110,0.0,1.0,79,0.00,,,0.00,WeatherCatV1.13B119,2013-03-17 07:13:00,
2013-03-17 03:19:00,13.1,7.8,29.88,ESE,110,0.0,0.0,79,0.00,,,0.00,WeatherCatV1.13B119,2013-03-17 07:19:00,
2013-03-17 03:24:00,13.0,7.7,29.89,ESE,110,0.0,0.0,79,0.00,,,0.00,WeatherCatV1.13B119,2013-03-17 07:24:00,
2013-03-17 03:30:00,12.8,7.8,29.89,ESE,110,0.0,0.0,80,0.00,,,0.00,WeatherCatV1.13B119,2013-03-17 07:30:00,
2013-03-17 03:35:00,12.5,7.5,29.89,ESE,110,0.0,0.0,80,0.00,,,0.00,WeatherCatV1.13B119,2013-03-17 07:35:00,
2013-03-17 03:40:00,12.2,7.2,29.89,ESE,110,0.0,0.0,80,0.00,,,0.00,WeatherCatV1.13B119,2013-03-17 07:40:00,
2013-03-17 03:46:00,12.2,7.5,29.89,ESE,110,0.0,2.0,81,0.00,,,0.00,WeatherCatV1.13B119,2013-03-17 07:46:00,
2013-03-17 03:51:00,12.1,7.4,29.89,ESE,110,0.0,0.0,81,0.00,,,0.00,WeatherCatV1.13B119,2013-03-17 07:51:00,
2013-03-17 03:56:00,11.9,7.2,29.90,ESE,110,0.0,0.0,81,0.00,,,0.00,WeatherCatV1.13B119,2013-03-17 07:56:00,
2013-03-17 04:01:00,11.7,7.0,29.89,ESE,110,0.0,1.0,81,0.00,,,0.00,WeatherCatV1.13B119,2013-03-17 08:01:00,
2013-03-17 04:06:00,11.8,7.4,29.90,ESE,110,0.0,1.0,82,0.00,,,0.00,WeatherCatV1.13B119,2013-03-17 08:06:00,
2013-03-17 04:11:00,11.9,7.5,29.90,ESE,110,0.0,2.0,82,0.00,,,0.00,WeatherCatV1.13B119,2013-03-17 08:11:00,
2013-03-17 04:16:00,11.8,7.4,29.90,ESE,110,0.0,0.0,82,0.00,,,0.00,WeatherCatV1.13B119,2013-03-17 08:16:00,
2013-03-17 04:21:00,11.6,7.2,29.90,ESE,110,0.0,0.0,82,0.00,,,0.00,WeatherCatV1.13B119,2013-03-17 08:21:00,
2013-03-17 04:26:00,11.3,6.9,29.91,ESE,110,0.0,0.0,82,0.00,,,0.00,WeatherCatV1.13B119,2013-03-17 08:26:00,
2013-03-17 04:31:00,11.2,6.8,29.90,ESE,110,0.0,0.0,82,0.00,,,0.00,WeatherCatV1.13B119,2013-03-17 08:31:00,
2013-03-17 04:36:00,11.2,6.8,29.90,SE,140,0.0,2.0,82,0.00,,,0.00,WeatherCatV1.13B119,2013-03-17 08:36:00,
2013-03-17 04:41:00,11.2,7.1,29.90,SE,140,1.0,2.0,83,0.00,,,0.00,WeatherCatV1.13B119,2013-03-17 08:41:00,
2013-03-17 04:46:00,11.2,7.1,29.90,SE,140,0.0,2.0,83,0.00,,,0.00,WeatherCatV1.13B119,2013-03-17 08:46:00,
2013-03-17 04:51:00,11.4,7.3,29.90,SE,140,2.0,2.0,83,0.00,,,0.00,WeatherCatV1.13B119,2013-03-17 08:51:00,
2013-03-17 04:56:00,11.5,7.4,29.90,SW,223,1.0,3.0,83,0.00,,,0.00,WeatherCatV1.13B119,2013-03-17 08:56:00,
2013-03-17 05:01:00,11.4,7.3,29.91,SW,223,0.0,0.0,83,0.00,,,0.00,WeatherCatV1.13B119,2013-03-17 09:01:00,
2013-03-17 05:05:00,11.2,6.8,29.91,SW,223,0.0,0.0,82,0.00,,,0.00,WeatherCatV1.13B119,2013-03-17 09:05:00,
2013-03-17 05:10:00,11.0,6.9,29.91,SW,224,2.0,2.0,83,0.00,,,0.00,WeatherCatV1.13B119,2013-03-17 09:10:00,
2013-03-17 05:15:00,11.2,7.1,29.91,SSW,205,2.0,2.0,83,0.00,,,0.00,WeatherCatV1.13B119,2013-03-17 09:15:00,
2013-03-17 05:20:00,11.3,7.2,29.91,SSW,205,0.0,0.0,83,0.00,,,0.00,WeatherCatV1.13B119,2013-03-17 09:20:00,
2013-03-17 05:25:00,11.3,7.2,29.91,SSW,205,0.0,0.0,83,0.00,,,0.00,WeatherCatV1.13B119,2013-03-17 09:25:00,
2013-03-17 05:30:00,11.4,7.3,29.90,WNW,287,0.0,1.0,83,0.00,,,0.00,WeatherCatV1.13B119,2013-03-17 09:30:00,
2013-03-17 05:35:00,11.6,7.2,29.90,WNW,287,0.0,0.0,82,0.00,,,0.00,WeatherCatV1.13B119,2013-03-17 09:35:00,
2013-03-17 05:41:00,11.3,6.9,29.90,WNW,293,3.0,4.0,82,0.00,,,0.00,WeatherCatV1.13B119,2013-03-17 09:41:00,
2013-03-17 05:46:00,11.4,7.0,29.90,WNW,293,1.0,2.0,82,0.00,,,0.00,WeatherCatV1.13B119,2013-03-17 09:46:00,
2013-03-17 05:51:00,11.2,6.8,29.90,WNW,293,0.0,0.0,82,0.00,,,0.00,WeatherCatV1.13B119,2013-03-17 09:51:00,
2013-03-17 05:56:00,11.4,7.3,29.91,WNW,292,1.0,1.0,83,0.00,,,0.00,WeatherCatV1.13B119,2013-03-17 09:56:00,
2013-03-17 06:01:00,11.3,6.9,29.91,WNW,292,0.0,0.0,82,0.00,,,0.00,WeatherCatV1.13B119,2013-03-17 10:01:00,
2013-03-17 06:06:00,11.6,7.2,29.91,WSW,244,0.0,2.0,82,0.00,,,0.00,WeatherCatV1.13B119,2013-03-17 10:06:00,
2013-03-17 06:11:00,11.8,7.1,29.91,West,279,0.0,5.0,81,0.00,,,0.00,WeatherCatV1.13B119,2013-03-17 10:11:00,
2013-03-17 06:16:00,12.0,7.0,29.91,West,279,1.0,1.0,80,0.00,,,0.00,WeatherCatV1.13B119,2013-03-17 10:16:00,
2013-03-17 06:21:00,11.9,6.7,29.91,SSW,207,1.0,2.0,79,0.00,,,0.00,WeatherCatV1.13B119,2013-03-17 10:21:00,
2013-03-17 06:26:00,12.0,6.8,29.91,SSW,207,2.0,2.0,79,0.00,,,0.00,WeatherCatV1.13B119,2013-03-17 10:26:00,
2013-03-17 06:31:00,11.9,6.7,29.91,SSW,206,2.0,2.0,79,0.00,,,0.00,WeatherCatV1.13B119,2013-03-17 10:31:00,
2013-03-17 06:36:00,11.9,6.7,29.91,SSW,207,0.0,0.0,79,0.00,,,0.00,WeatherCatV1.13B119,2013-03-17 10:36:00,
2013-03-17 06:41:00,11.6,6.4,29.91,SSW,207,0.0,0.0,79,0.00,,,0.00,WeatherCatV1.13B119,2013-03-17 10:41:00,
2013-03-17 06:46:00,11.2,6.0,29.92,SSW,207,0.0,0.0,79,0.00,,,0.00,WeatherCatV1.13B119,2013-03-17 10:46:00,
2013-03-17 06:51:00,11.0,5.8,29.92,SSW,207,0.0,0.0,79,0.00,,,0.00,WeatherCatV1.13B119,2013-03-17 10:51:00,
2013-03-17 06:56:00,10.9,5.4,29.92,SSW,207,0.0,2.0,78,0.00,,,0.00,WeatherCatV1.13B119,2013-03-17 10:56:00,
2013-03-17 07:01:00,10.8,5.6,29.92,SSW,207,1.0,1.0,79,0.00,,,0.00,WeatherCatV1.13B119,2013-03-17 11:01:00,
2013-03-17 07:06:00,11.2,6.0,29.92,SSW,207,0.0,1.0,79,0.00,,,0.00,WeatherCatV1.13B119,2013-03-17 11:06:00,
2013-03-17 07:11:00,11.1,5.9,29.92,SSW,206,0.0,0.0,79,0.00,,,0.00,WeatherCatV1.13B119,2013-03-17 11:11:00,
2013-03-17 07:16:00,10.8,5.6,29.92,SSW,207,0.0,0.0,79,0.00,,,0.00,WeatherCatV1.13B119,2013-03-17 11:16:00,
2013-03-17 07:21:00,10.8,5.9,29.92,SSW,207,0.0,0.0,80,0.00,,,0.00,WeatherCatV1.13B119,2013-03-17 11:21:00,
2013-03-17 07:26:00,10.8,6.1,29.92,SSW,207,0.0,0.0,81,0.00,,,0.00,WeatherCatV1.13B119,2013-03-17 11:26:00,
2013-03-17 07:31:00,10.8,6.1,29.92,SSW,206,0.0,0.0,81,0.00,,,0.00,WeatherCatV1.13B119,2013-03-17 11:31:00,
2013-03-17 07:36:00,10.8,6.1,29.92,SSW,207,0.0,1.0,81,0.00,,,0.00,WeatherCatV1.13B119,2013-03-17 11:36:00,
2013-03-17 07:41:00,11.1,6.4,29.93,SSW,207,0.0,0.0,81,0.00,,,0.00,WeatherCatV1.13B119,2013-03-17 11:41:00,
2013-03-17 07:46:00,11.4,6.7,29.93,SSW,206,0.0,0.0,81,0.00,,,0.00,WeatherCatV1.13B119,2013-03-17 11:46:00,
2013-03-17 07:51:00,11.4,6.7,29.93,SSW,206,0.0,0.0,81,0.00,,,0.00,WeatherCatV1.13B119,2013-03-17 11:51:00,
2013-03-17 07:56:00,11.4,6.7,29.93,SSW,207,0.0,0.0,81,0.00,,,0.00,WeatherCatV1.13B119,2013-03-17 11:56:00,
2013-03-17 08:01:00,11.7,6.7,29.93,SSW,207,0.0,0.0,80,0.00,,,0.00,WeatherCatV1.13B119,2013-03-17 12:01:00,
2013-03-17 08:06:00,12.6,7.3,29.94,SSW,207,0.0,0.0,79,0.00,,,0.00,WeatherCatV1.13B119,2013-03-17 12:06:00,
2013-03-17 08:11:00,13.5,7.7,29.93,SSW,207,0.0,0.0,77,0.00,,,0.00,WeatherCatV1.13B119,2013-03-17 12:11:00,
2013-03-17 08:16:00,13.7,7.9,29.94,SSW,207,0.0,3.0,77,0.00,,,0.00,WeatherCatV1.13B119,2013-03-17 12:16:00,
2013-03-17 08:21:00,14.1,8.0,29.93,SSW,207,2.0,2.0,76,0.00,,,0.00,WeatherCatV1.13B119,2013-03-17 12:21:00,
2013-03-17 08:26:00,14.8,8.0,29.94,SSW,204,0.0,3.0,74,0.00,,,0.00,WeatherCatV1.13B119,2013-03-17 12:26:00,
2013-03-17 08:31:00,16.2,7.8,29.93,ESE,110,0.0,1.0,69,0.00,,,0.00,WeatherCatV1.13B119,2013-03-17 12:31:00,
2013-03-17 08:36:00,17.0,8.9,29.94,ESE,111,0.0,0.0,70,0.00,,,0.00,WeatherCatV1.13B119,2013-03-17 12:36:00,
2013-03-17 08:41:00,17.4,8.7,29.94,ESE,111,3.0,3.0,68,0.00,,,0.00,WeatherCatV1.13B119,2013-03-17 12:41:00,
2013-03-17 08:46:00,18.2,8.4,29.94,ESE,107,0.0,0.0,65,0.00,,,0.00,WeatherCatV1.13B119,2013-03-17 12:46:00,
2013-03-17 08:51:00,18.6,6.7,29.94,ESE,107,0.0,0.0,59,0.00,,,0.00,WeatherCatV1.13B119,2013-03-17 12:51:00,
2013-03-17 08:56:00,19.3,7.3,29.94,ESE,107,1.0,3.0,59,0.00,,,0.00,WeatherCatV1.13B119,2013-03-17 12:56:00,
2013-03-17 09:01:00,19.8,7.4,29.95,SE,130,4.0,5.0,58,0.00,,,0.00,WeatherCatV1.13B119,2013-03-17 13:01:00,
2013-03-17 09:06:00,20.0,7.2,29.95,North,0,1.0,1.0,57,0.00,,,0.00,WeatherCatV1.13B119,2013-03-17 13:06:00,
2013-03-17 09:11:00,20.0,6.9,29.95,SE,137,3.0,5.0,56,0.00,,,0.00,WeatherCatV1.13B119,2013-03-17 13:11:00,
2013-03-17 09:16:00,20.2,5.8,29.95,ESE,113,13.0,13.0,53,0.00,,,0.00,WeatherCatV1.13B119,2013-03-17 13:16:00,
2013-03-17 09:21:00,20.1,5.7,29.96,South,182,0.0,3.0,53,0.00,,,0.00,WeatherCatV1.13B119,2013-03-17 13:21:00,
2013-03-17 09:26:00,20.3,6.3,29.96,East,82,5.0,5.0,54,0.00,,,0.00,WeatherCatV1.13B119,2013-03-17 13:26:00,
2013-03-17 09:31:00,21.0,6.6,29.96,SW,225,2.0,7.0,53,0.00,,,0.00,WeatherCatV1.13B119,2013-03-17 13:31:00,
2013-03-17 09:36:00,21.4,6.5,29.96,SSE,156,5.0,5.0,52,0.00,,,0.00,WeatherCatV1.13B119,2013-03-17 13:36:00,
2013-03-17 09:41:00,21.6,7.6,29.97,ESE,105,2.0,3.0,54,0.00,,,0.00,WeatherCatV1.13B119,2013-03-17 13:41:00,
2013-03-17 09:46:00,21.8,7.3,29.97,WSW,239,1.0,4.0,53,0.00,,,0.00,WeatherCatV1.13B119,2013-03-17 13:46:00,
2013-03-17 09:51:00,21.7,7.7,29.97,SE,143,4.0,4.0,54,0.00,,,0.00,WeatherCatV1.13B119,2013-03-17 13:51:00,
2013-03-17 09:56:00,21.3,7.3,29.98,East,87,0.0,2.0,54,0.00,,,0.00,WeatherCatV1.13B119,2013-03-17 13:56:00,
2013-03-17 10:01:00,21.2,7.2,29.97,ESE,107,4.0,9.0,54,0.00,,,0.00,WeatherCatV1.13B119,2013-03-17 14:01:00,
2013-03-17 10:06:00,21.3,6.9,29.98,SW,216,1.0,2.0,53,0.00,,,0.00,WeatherCatV1.13B119,2013-03-17 14:06:00,
2013-03-17 10:11:00,21.2,6.4,29.97,SE,141,2.0,6.0,52,0.00,,,0.00,WeatherCatV1.13B119,2013-03-17 14:11:00,
2013-03-17 10:16:00,21.2,6.8,29.98,NNE,24,3.0,12.0,53,0.00,,,0.00,WeatherCatV1.13B119,2013-03-17 14:16:00,
2013-03-17 10:21:00,21.3,7.7,29.97,South,191,5.0,6.0,55,0.00,,,0.00,WeatherCatV1.13B119,2013-03-17 14:21:00,
2013-03-17 10:27:00,21.6,8.4,29.97,NNE,20,3.0,3.0,56,0.00,,,0.00,WeatherCatV1.13B119,2013-03-17 14:27:00,
2013-03-17 10:32:00,21.9,7.8,29.98,WSW,248,0.0,4.0,54,0.00,,,0.00,WeatherCatV1.13B119,2013-03-17 14:32:00,
2013-03-17 10:37:00,22.0,7.5,29.98,WSW,245,2.0,6.0,53,0.00,,,0.00,WeatherCatV1.13B119,2013-03-17 14:37:00,
2013-03-17 10:42:00,21.5,8.3,29.98,SE,145,4.0,6.0,56,0.00,,,0.00,WeatherCatV1.13B119,2013-03-17 14:42:00,
2013-03-17 10:47:00,21.4,7.4,29.97,SE,132,0.0,14.0,54,0.00,,,0.00,WeatherCatV1.13B119,2013-03-17 14:47:00,
2013-03-17 10:52:00,21.2,6.8,29.98,SSW,213,13.0,13.0,53,0.00,,,0.00,WeatherCatV1.13B119,2013-03-17 14:52:00,
2013-03-17 10:57:00,21.5,7.1,29.98,SSW,207,3.0,4.0,53,0.00,,,0.00,WeatherCatV1.13B119,2013-03-17 14:57:00,
2013-03-17 11:02:00,22.4,8.3,29.98,SSE,149,3.0,13.0,54,0.00,,,0.00,WeatherCatV1.13B119,2013-03-17 15:02:00,
2013-03-17 11:07:00,23.1,9.0,29.98,ESE,118,1.0,7.0,54,0.00,,,0.00,WeatherCatV1.13B119,2013-03-17 15:07:00,
2013-03-17 11:12:00,23.1,7.7,29.99,ESE,102,3.0,9.0,51,0.00,,,0.00,WeatherCatV1.13B119,2013-03-17 15:12:00,
2013-03-17 11:17:00,22.9,7.9,29.99,ESE,117,7.0,13.0,52,0.00,,,0.00,WeatherCatV1.13B119,2013-03-17 15:17:00,
2013-03-17 11:22:00,22.5,6.7,29.99,SSE,159,5.0,12.0,50,0.00,,,0.00,WeatherCatV1.13B119,2013-03-17 15:22:00,
2013-03-17 11:27:00,22.5,7.6,30.00,SE,126,11.0,11.0,52,0.00,,,0.00,WeatherCatV1.13B119,2013-03-17 15:27:00,
2013-03-17 11:32:00,22.8,8.7,29.99,SSE,164,3.0,5.0,54,0.00,,,0.00,WeatherCatV1.13B119,2013-03-17 15:32:00,
2013-03-17 11:37:00,23.1,7.7,29.99,ENE,75,4.0,11.0,51,0.00,,,0.00,WeatherCatV1.13B119,2013-03-17 15:37:00,
2013-03-17 11:42:00,23.4,8.0,29.99,SSE,158,4.0,10.0,51,0.00,,,0.00,WeatherCatV1.13B119,2013-03-17 15:42:00,
2013-03-17 11:47:00,22.9,7.9,30.00,NNE,13,12.0,14.0,52,0.00,,,0.00,WeatherCatV1.13B119,2013-03-17 15:47:00,
2013-03-17 11:52:00,22.5,7.1,30.00,ESE,109,3.0,7.0,51,0.00,,,0.00,WeatherCatV1.13B119,2013-03-17 15:52:00,
2013-03-17 11:58:00,23.6,9.0,30.00,ESE,117,2.0,11.0,53,0.00,,,0.00,WeatherCatV1.13B119,2013-03-17 15:58:00,
2013-03-17 12:03:00,23.6,6.8,30.00,SE,146,1.0,7.0,48,0.00,,,0.00,WeatherCatV1.13B119,2013-03-17 16:03:00,
2013-03-17 12:08:00,24.6,8.2,30.01,East,96,4.0,9.0,49,0.00,,,0.00,WeatherCatV1.13B119,2013-03-17 16:08:00,
2013-03-17 12:13:00,24.0,6.3,30.01,SSE,156,6.0,14.0,46,0.00,,,0.00,WeatherCatV1.13B119,2013-03-17 16:13:00,
2013-03-17 12:18:00,23.9,7.1,30.01,SSW,213,8.0,10.0,48,0.00,,,0.00,WeatherCatV1.13B119,2013-03-17 16:18:00,
2013-03-17 12:23:00,24.0,8.1,30.01,ESE,117,6.0,14.0,50,0.00,,,0.00,WeatherCatV1.13B119,2013-03-17 16:23:00,
2013-03-17 12:28:00,24.3,7.0,30.01,East,88,5.0,9.0,47,0.00,,,0.00,WeatherCatV1.13B119,2013-03-17 16:28:00,
2013-03-17 12:33:00,23.7,6.9,30.01,South,183,3.0,13.0,48,0.00,,,0.00,WeatherCatV1.13B119,2013-03-17 16:33:00,
2013-03-17 12:39:00,24.5,7.7,30.01,ESE,114,6.0,12.0,48,0.00,,,0.00,WeatherCatV1.13B119,2013-03-17 16:39:00,
2013-03-17 12:44:00,23.4,7.1,30.01,NE,56,3.0,6.0,49,0.00,,,0.00,WeatherCatV1.13B119,2013-03-17 16:44:00,
2013-03-17 12:49:00,23.4,8.4,30.01,SSW,196,3.0,10.0,52,0.00,,,0.00,WeatherCatV1.13B119,2013-03-17 16:49:00,
2013-03-17 12:54:00,23.3,7.4,30.01,ESE,119,0.0,6.0,50,0.00,,,0.00,WeatherCatV1.13B119,2013-03-17 16:54:00,
2013-03-17 12:59:00,23.7,7.4,30.01,ESE,112,0.0,11.0,49,0.00,,,0.00,WeatherCatV1.13B119,2013-03-17 16:59:00,
2013-03-17 13:04:00,23.2,6.0,30.02,WSW,244,1.0,18.0,47,0.00,,,0.00,WeatherCatV1.13B119,2013-03-17 17:04:00,
2013-03-17 13:09:00,23.3,7.9,30.01,ENE,72,4.0,5.0,51,0.00,,,0.00,WeatherCatV1.13B119,2013-03-17 17:09:00,
2013-03-17 13:14:00,23.6,5.9,30.01,SE,141,3.0,7.0,46,0.00,,,0.00,WeatherCatV1.13B119,2013-03-17 17:14:00,
2013-03-17 13:19:00,23.1,4.5,30.02,NNE,26,6.0,7.0,44,0.00,,,0.00,WeatherCatV1.13B119,2013-03-17 17:19:00,
2013-03-17 13:24:00,23.5,6.7,30.02,ENE,78,4.0,6.0,48,0.00,,,0.00,WeatherCatV1.13B119,2013-03-17 17:24:00,
2013-03-17 13:29:00,24.0,7.2,30.01,SE,125,6.0,6.0,48,0.00,,,0.00,WeatherCatV1.13B119,2013-03-17 17:29:00,
2013-03-17 13:34:00,24.4,6.1,30.01,North,11,3.0,10.0,45,0.00,,,0.00,WeatherCatV1.13B119,2013-03-17 17:34:00,
2013-03-17 13:39:00,25.0,7.2,30.01,SE,141,6.0,7.0,46,0.00,,,0.00,WeatherCatV1.13B119,2013-03-17 17:39:00,
2013-03-17 13:44:00,24.8,6.5,30.01,South,178,2.0,13.0,45,0.00,,,0.00,WeatherCatV1.13B119,2013-03-17 17:44:00,
2013-03-17 13:49:00,24.3,6.1,30.02,SSE,150,7.0,12.0,45,0.00,,,0.00,WeatherCatV1.13B119,2013-03-17 17:49:00,
2013-03-17 13:54:00,24.1,5.4,30.00,ENE,57,4.0,14.0,44,0.00,,,0.00,WeatherCatV1.13B119,2013-03-17 17:54:00,
2013-03-17 13:59:00,24.3,6.5,30.02,SE,139,13.0,22.0,46,0.00,,,0.00,WeatherCatV1.13B119,2013-03-17 17:59:00,
2013-03-17 14:04:00,24.2,6.4,30.02,ESE,113,4.0,11.0,46,0.00,,,0.00,WeatherCatV1.13B119,2013-03-17 18:04:00,
2013-03-17 14:09:00,24.1,5.4,30.03,NE,46,6.0,13.0,44,0.00,,,0.00,WeatherCatV1.13B119,2013-03-17 18:09:00,
2013-03-17 14:14:00,23.5,7.2,30.01,NW,323,3.0,16.0,49,0.00,,,0.00,WeatherCatV1.13B119,2013-03-17 18:14:00,
2013-03-17 14:19:00,24.0,6.7,30.03,NNW,343,3.0,6.0,47,0.00,,,0.00,WeatherCatV1.13B119,2013-03-17 18:19:00,
2013-03-17 14:24:00,24.5,6.7,30.02,SSE,153,3.0,10.0,46,0.00,,,0.00,WeatherCatV1.13B119,2013-03-17 18:24:00,
2013-03-17 14:29:00,24.6,5.8,30.01,SW,230,0.0,15.0,44,0.00,,,0.00,WeatherCatV1.13B119,2013-03-17 18:29:00,
2013-03-17 14:34:00,24.8,6.0,30.02,ESE,122,3.0,12.0,44,0.00,,,0.00,WeatherCatV1.13B119,2013-03-17 18:34:00,
2013-03-17 14:39:00,23.7,4.0,30.03,East,98,5.0,9.0,42,0.00,,,0.00,WeatherCatV1.13B119,2013-03-17 18:39:00,
2013-03-17 14:44:00,23.5,3.8,30.03,SE,128,8.0,21.0,42,0.00,,,0.00,WeatherCatV1.13B119,2013-03-17 18:44:00,
2013-03-17 14:49:00,23.5,3.8,30.03,SE,126,2.0,11.0,42,0.00,,,0.00,WeatherCatV1.13B119,2013-03-17 18:49:00,
2013-03-17 14:54:00,23.9,5.7,30.03,SSE,157,7.0,11.0,45,0.00,,,0.00,WeatherCatV1.13B119,2013-03-17 18:54:00,
2013-03-17 14:59:00,23.7,6.0,30.03,SE,146,11.0,11.0,46,0.00,,,0.00,WeatherCatV1.13B119,2013-03-17 18:59:00,
2013-03-17 15:04:00,23.4,4.7,30.04,SSE,150,5.0,10.0,44,0.00,,,0.00,WeatherCatV1.13B119,2013-03-17 19:04:00,
2013-03-17 15:09:00,23.5,5.8,30.04,SE,144,3.0,6.0,46,0.00,,,0.00,WeatherCatV1.13B119,2013-03-17 19:09:00,
2013-03-17 15:14:00,23.6,5.9,30.04,South,177,2.0,10.0,46,0.00,,,0.00,WeatherCatV1.13B119,2013-03-17 19:14:00,
2013-03-17 15:19:00,23.6,6.8,30.04,East,82,4.0,6.0,48,0.00,,,0.00,WeatherCatV1.13B119,2013-03-17 19:19:00,
2013-03-17 15:24:00,23.7,6.9,30.04,East,98,3.0,10.0,48,0.00,,,0.00,WeatherCatV1.13B119,2013-03-17 19:24:00,
2013-03-17 15:29:00,23.3,5.6,30.05,SSE,160,2.0,12.0,46,0.00,,,0.00,WeatherCatV1.13B119,2013-03-17 19:29:00,
2013-03-17 15:34:00,23.6,5.9,30.05,NE,42,2.0,5.0,46,0.00,,,0.00,WeatherCatV1.13B119,2013-03-17 19:34:00,
2013-03-17 15:39:00,23.9,4.7,30.05,South,188,7.0,11.0,43,0.00,,,0.00,WeatherCatV1.13B119,2013-03-17 19:39:00,
2013-03-17 15:44:00,23.8,4.6,30.04,East,87,2.0,14.0,43,0.00,,,0.00,WeatherCatV1.13B119,2013-03-17 19:44:00,
2013-03-17 15:49:00,23.6,4.4,30.05,South,182,6.0,12.0,43,0.00,,,0.00,WeatherCatV1.13B119,2013-03-17 19:49:00,
2013-03-17 15:54:00,23.8,6.1,30.05,East,82,2.0,4.0,46,0.00,,,0.00,WeatherCatV1.13B119,2013-03-17 19:54:00,
2013-03-17 15:59:00,23.7,4.0,30.05,NE,53,4.0,9.0,42,0.00,,,0.00,WeatherCatV1.13B119,2013-03-17 19:59:00,
2013-03-17 16:04:00,22.8,3.7,30.06,SSE,154,2.0,10.0,43,0.00,,,0.00,WeatherCatV1.13B119,2013-03-17 20:04:00,
2013-03-17 16:09:00,22.6,5.0,30.07,South,179,1.0,10.0,46,0.00,,,0.00,WeatherCatV1.13B119,2013-03-17 20:09:00,
2013-03-17 16:14:00,22.7,4.1,30.06,SSE,154,16.0,16.0,44,0.00,,,0.00,WeatherCatV1.13B119,2013-03-17 20:14:00,
2013-03-17 16:19:00,22.5,3.4,30.07,NE,45,7.0,10.0,43,0.00,,,0.00,WeatherCatV1.13B119,2013-03-17 20:19:00,
2013-03-17 16:24:00,22.4,4.3,30.07,South,169,6.0,13.0,45,0.00,,,0.00,WeatherCatV1.13B119,2013-03-17 20:24:00,
2013-03-17 16:29:00,22.9,4.8,30.07,West,278,7.0,14.0,45,0.00,,,0.00,WeatherCatV1.13B119,2013-03-17 20:29:00,
2013-03-17 16:34:00,22.9,5.2,30.07,South,174,2.0,5.0,46,0.00,,,0.00,WeatherCatV1.13B119,2013-03-17 20:34:00,
2013-03-17 16:39:00,22.9,5.7,30.07,SSE,152,3.0,6.0,47,0.00,,,0.00,WeatherCatV1.13B119,2013-03-17 20:39:00,
2013-03-17 16:44:00,23.2,5.5,30.08,SE,142,1.0,11.0,46,0.00,,,0.00,WeatherCatV1.13B119,2013-03-17 20:44:00,
2013-03-17 16:49:00,23.0,4.4,30.07,WNW,292,4.0,7.0,44,0.00,,,0.00,WeatherCatV1.13B119,2013-03-17 20:49:00,
2013-03-17 16:54:00,22.6,4.5,30.08,ENE,73,3.0,4.0,45,0.00,,,0.00,WeatherCatV1.13B119,2013-03-17 20:54:00,
2013-03-17 16:59:00,22.2,3.1,30.08,North,0,1.0,11.0,43,0.00,,,0.00,WeatherCatV1.13B119,2013-03-17 20:59:00,
2013-03-17 17:04:00,22.2,4.1,30.08,East,88,3.0,5.0,45,0.00,,,0.00,WeatherCatV1.13B119,2013-03-17 21:04:00,
2013-03-17 17:09:00,22.7,5.1,30.08,SSE,148,3.0,5.0,46,0.00,,,0.00,WeatherCatV1.13B119,2013-03-17 21:09:00,
2013-03-17 17:14:00,23.0,4.4,30.09,SSE,163,4.0,5.0,44,0.00,,,0.00,WeatherCatV1.13B119,2013-03-17 21:14:00,
2013-03-17 17:19:00,22.5,3.9,30.09,ENE,65,3.0,9.0,44,0.00,,,0.00,WeatherCatV1.13B119,2013-03-17 21:19:00,
2013-03-17 17:24:00,22.8,3.2,30.10,SSW,200,1.0,6.0,42,0.00,,,0.00,WeatherCatV1.13B119,2013-03-17 21:24:00,
2013-03-17 17:29:00,22.2,1.6,30.10,ESE,120,3.0,5.0,40,0.00,,,0.00,WeatherCatV1.13B119,2013-03-17 21:29:00,
2013-03-17 17:34:00,22.1,3.6,30.10,SE,130,2.0,3.0,44,0.00,,,0.00,WeatherCatV1.13B119,2013-03-17 21:34:00,
2013-03-17 17:39:00,21.5,1.5,30.11,SSW,209,0.0,2.0,41,0.00,,,0.00,WeatherCatV1.13B119,2013-03-17 21:39:00,
2013-03-17 17:44:00,21.7,2.7,30.11,ENE,64,4.0,5.0,43,0.00,,,0.00,WeatherCatV1.13B119,2013-03-17 21:44:00,
2013-03-17 17:49:00,21.7,0.1,30.11,South,176,1.0,3.0,38,0.00,,,0.00,WeatherCatV1.13B119,2013-03-17 21:49:00,
2013-03-17 17:54:00,21.4,1.4,30.11,SSE,168,3.0,3.0,41,0.00,,,0.00,WeatherCatV1.13B119,2013-03-17 21:54:00,
2013-03-17 17:59:00,21.0,3.0,30.11,ENE,65,5.0,5.0,45,0.00,,,0.00,WeatherCatV1.13B119,2013-03-17 21:59:00,
2013-03-17 18:04:00,20.6,3.6,30.10,SW,219,2.0,4.0,47,0.00,,,0.00,WeatherCatV1.13B119,2013-03-17 22:04:00,
2013-03-17 18:09:00,20.2,0.8,30.11,ENE,61,2.0,4.0,42,0.00,,,0.00,WeatherCatV1.13B119,2013-03-17 22:09:00,
2013-03-17 18:14:00,19.8,0.5,30.11,NNW,330,13.0,13.0,42,0.00,,,0.00,WeatherCatV1.13B119,2013-03-17 22:14:00,
2013-03-17 18:19:00,19.7,-0.1,30.13,WNW,296,0.0,7.0,41,0.00,,,0.00,WeatherCatV1.13B119,2013-03-17 22:19:00,
2013-03-17 18:24:00,19.5,-0.8,30.13,ESE,106,3.0,6.0,40,0.00,,,0.00,WeatherCatV1.13B119,2013-03-17 22:24:00,
2013-03-17 18:29:00,19.3,0.0,30.13,SE,141,2.0,4.0,42,0.00,,,0.00,WeatherCatV1.13B119,2013-03-17 22:29:00,
2013-03-17 18:34:00,19.3,0.5,30.13,ESE,109,1.0,4.0,43,0.00,,,0.00,WeatherCatV1.13B119,2013-03-17 22:34:00,
2013-03-17 18:39:00,19.2,-0.1,30.14,SE,124,3.0,4.0,42,0.00,,,0.00,WeatherCatV1.13B119,2013-03-17 22:39:00,
2013-03-17 18:44:00,19.2,0.4,30.14,WNW,284,1.0,5.0,43,0.00,,,0.00,WeatherCatV1.13B119,2013-03-17 22:44:00,
2013-03-17 18:49:00,19.1,1.8,30.14,SE,126,1.0,3.0,46,0.00,,,0.00,WeatherCatV1.13B119,2013-03-17 22:49:00,
2013-03-17 18:54:00,19.0,1.7,30.14,ENE,69,2.0,3.0,46,0.00,,,0.00,WeatherCatV1.13B119,2013-03-17 22:54:00,
2013-03-17 18:59:00,18.8,2.4,30.15,East,92,9.0,9.0,48,0.00,,,0.00,WeatherCatV1.13B119,2013-03-17 22:59:00,
2013-03-17 19:04:00,18.6,1.3,30.15,East,79,2.0,11.0,46,0.00,,,0.00,WeatherCatV1.13B119,2013-03-17 23:04:00,
2013-03-17 19:09:00,18.4,2.0,30.15,East,89,3.0,6.0,48,0.00,,,0.00,WeatherCatV1.13B119,2013-03-17 23:09:00,
2013-03-17 19:14:00,18.4,1.1,30.16,SSW,208,1.0,2.0,46,0.00,,,0.00,WeatherCatV1.13B119,2013-03-17 23:14:00,
2013-03-17 19:19:00,18.2,0.5,30.17,ENE,72,2.0,5.0,45,0.00,,,0.00,WeatherCatV1.13B119,2013-03-17 23:19:00,
2013-03-17 19:24:00,18.1,1.8,30.17,ESE,106,3.0,3.0,48,0.00,,,0.00,WeatherCatV1.13B119,2013-03-17 23:24:00,
2013-03-17 19:29:00,18.0,1.2,30.17,ESE,105,0.0,2.0,47,0.00,,,0.00,WeatherCatV1.13B119,2013-03-17 23:29:00,
2013-03-17 19:34:00,17.9,1.1,30.18,SE,136,4.0,4.0,47,0.00,,,0.00,WeatherCatV1.13B119,2013-03-17 23:34:00,
2013-03-17 19:39:00,17.7,0.0,30.18,SE,129,3.0,4.0,45,0.00,,,0.00,WeatherCatV1.13B119,2013-03-17 23:39:00,
2013-03-17 19:44:00,17.7,1.4,30.19,ENE,72,1.0,4.0,48,0.00,,,0.00,WeatherCatV1.13B119,2013-03-17 23:44:00,
2013-03-17 19:49:00,17.6,0.8,30.19,East,87,0.0,1.0,47,0.00,,,0.00,WeatherCatV1.13B119,2013-03-17 23:49:00,
2013-03-17 19:54:00,17.5,0.7,30.20,East,87,0.0,2.0,47,0.00,,,0.00,WeatherCatV1.13B119,2013-03-17 23:54:00,
2013-03-17 19:59:00,17.2,2.2,30.20,East,87,2.0,2.0,51,0.00,,,0.00,WeatherCatV1.13B119,2013-03-17 23:59:00,
2013-03-17 20:04:00,17.3,1.0,30.20,ENE,71,2.0,3.0,48,0.00,,,0.00,WeatherCatV1.13B119,2013-03-18 00:04:00,
2013-03-17 20:09:00,17.2,1.8,30.20,East,82,1.0,3.0,50,0.00,,,0.00,WeatherCatV1.13B119,2013-03-18 00:09:00,
2013-03-17 20:14:00,17.1,3.0,30.20,East,82,2.0,2.0,53,0.00,,,0.00,WeatherCatV1.13B119,2013-03-18 00:14:00,
2013-03-17 20:19:00,17.0,1.2,30.20,East,82,1.0,3.0,49,0.00,,,0.00,WeatherCatV1.13B119,2013-03-18 00:19:00,
2013-03-17 20:25:00,17.0,2.0,30.20,ENE,78,2.0,6.0,51,0.00,,,0.00,WeatherCatV1.13B119,2013-03-18 00:25:00,
2013-03-17 20:30:00,16.8,1.4,30.20,East,99,1.0,3.0,50,0.00,,,0.00,WeatherCatV1.13B119,2013-03-18 00:30:00,
2013-03-17 20:35:00,16.7,1.3,30.20,ENE,78,7.0,7.0,50,0.00,,,0.00,WeatherCatV1.13B119,2013-03-18 00:35:00,
2013-03-17 20:40:00,16.6,0.8,30.21,ESE,109,3.0,10.0,49,0.00,,,0.00,WeatherCatV1.13B119,2013-03-18 00:40:00,
2013-03-17 20:45:00,16.4,1.1,30.21,NNE,14,3.0,13.0,50,0.00,,,0.00,WeatherCatV1.13B119,2013-03-18 00:45:00,
2013-03-17 20:50:00,16.4,0.6,30.22,East,88,2.0,4.0,49,0.00,,,0.00,WeatherCatV1.13B119,2013-03-18 00:50:00,
2013-03-17 20:55:00,16.4,0.2,30.23,South,182,2.0,3.0,48,0.00,,,0.00,WeatherCatV1.13B119,2013-03-18 00:55:00,
2013-03-17 21:00:00,16.3,1.4,30.23,East,82,0.0,4.0,51,0.00,,,0.00,WeatherCatV1.13B119,2013-03-18 01:00:00,
2013-03-17 21:05:00,16.2,0.9,30.23,SE,130,2.0,4.0,50,0.00,,,0.00,WeatherCatV1.13B119,2013-03-18 01:05:00,
2013-03-17 21:10:00,16.2,1.3,30.24,ESE,122,1.0,3.0,51,0.00,,,0.00,WeatherCatV1.13B119,2013-03-18 01:10:00,
2013-03-17 21:15:00,16.2,0.9,30.24,ESE,122,1.0,2.0,50,0.00,,,0.00,WeatherCatV1.13B119,2013-03-18 01:15:00,
2013-03-17 21:20:00,16.1,0.3,30.24,East,90,2.0,5.0,49,0.00,,,0.00,WeatherCatV1.13B119,2013-03-18 01:20:00,
2013-03-17 21:25:00,16.0,1.5,30.24,East,90,2.0,2.0,52,0.00,,,0.00,WeatherCatV1.13B119,2013-03-18 01:25:00,
2013-03-17 21:30:00,15.9,1.4,30.24,SE,128,1.0,7.0,52,0.00,,,0.00,WeatherCatV1.13B119,2013-03-18 01:30:00,
2013-03-17 21:36:00,15.8,1.3,30.24,ENE,69,0.0,0.0,52,0.00,,,0.00,WeatherCatV1.13B119,2013-03-18 01:36:00,
2013-03-17 21:41:00,15.8,0.9,30.24,ENE,78,1.0,2.0,51,0.00,,,0.00,WeatherCatV1.13B119,2013-03-18 01:41:00,
2013-03-17 21:46:00,15.8,0.1,30.24,SSE,149,2.0,5.0,49,0.00,,,0.00,WeatherCatV1.13B119,2013-03-18 01:46:00,
2013-03-17 21:51:00,15.9,0.6,30.24,SE,127,0.0,3.0,50,0.00,,,0.00,WeatherCatV1.13B119,2013-03-18 01:51:00,
2013-03-17 21:56:00,15.9,1.0,30.24,WNW,303,2.0,4.0,51,0.00,,,0.00,WeatherCatV1.13B119,2013-03-18 01:56:00,
2013-03-17 22:01:00,15.9,-0.3,30.25,SE,138,2.0,2.0,48,0.00,,,0.00,WeatherCatV1.13B119,2013-03-18 02:01:00,
2013-03-17 22:06:00,15.8,-0.8,30.25,South,189,1.0,3.0,47,0.00,,,0.00,WeatherCatV1.13B119,2013-03-18 02:06:00,
2013-03-17 22:11:00,15.7,0.0,30.25,SE,135,2.0,7.0,49,0.00,,,0.00,WeatherCatV1.13B119,2013-03-18 02:11:00,
2013-03-17 22:16:00,15.5,-0.2,30.25,South,171,2.0,2.0,49,0.00,,,0.00,WeatherCatV1.13B119,2013-03-18 02:16:00,
2013-03-17 22:21:00,15.4,-0.3,30.25,ESE,104,1.0,5.0,49,0.00,,,0.00,WeatherCatV1.13B119,2013-03-18 02:21:00,
2013-03-17 22:26:00,15.4,-1.2,30.25,ESE,107,4.0,5.0,47,0.00,,,0.00,WeatherCatV1.13B119,2013-03-18 02:26:00,
2013-03-17 22:31:00,15.5,-1.1,30.25,SE,126,1.0,3.0,47,0.00,,,0.00,WeatherCatV1.13B119,2013-03-18 02:31:00,
2013-03-17 22:36:00,15.8,-1.3,30.25,South,190,0.0,2.0,46,0.00,,,0.00,WeatherCatV1.13B119,2013-03-18 02:36:00,
2013-03-17 22:41:00,15.8,-1.7,30.25,SE,139,2.0,3.0,45,0.00,,,0.00,WeatherCatV1.13B119,2013-03-18 02:41:00,
2013-03-17 22:46:00,15.6,-1.0,30.25,SE,142,2.0,3.0,47,0.00,,,0.00,WeatherCatV1.13B119,2013-03-18 02:46:00,
2013-03-17 22:51:00,15.5,-1.1,30.26,South,190,0.0,2.0,47,0.00,,,0.00,WeatherCatV1.13B119,2013-03-18 02:51:00,
2013-03-17 22:56:00,15.3,0.5,30.26,South,190,0.0,0.0,51,0.00,,,0.00,WeatherCatV1.13B119,2013-03-18 02:56:00,
2013-03-17 23:01:00,15.2,-1.8,30.26,SE,140,0.0,2.0,46,0.00,,,0.00,WeatherCatV1.13B119,2013-03-18 03:01:00,
2013-03-17 23:06:00,15.3,-1.3,30.27,SE,140,2.0,2.0,47,0.00,,,0.00,WeatherCatV1.13B119,2013-03-18 03:06:00,
2013-03-17 23:11:00,15.1,-1.0,30.26,SE,140,0.0,3.0,48,0.00,,,0.00,WeatherCatV1.13B119,2013-03-18 03:11:00,
2013-03-17 23:16:00,15.0,-1.6,30.26,SE,140,2.0,2.0,47,0.00,,,0.00,WeatherCatV1.13B119,2013-03-18 03:16:00,
2013-03-17 23:21:00,15.1,-0.2,30.27,SE,140,2.0,2.0,50,0.00,,,0.00,WeatherCatV1.13B119,2013-03-18 03:21:00,
2013-03-17 23:26:00,15.2,-0.9,30.26,SE,140,1.0,3.0,48,0.00,,,0.00,WeatherCatV1.13B119,2013-03-18 03:26:00,
2013-03-17 23:31:00,15.2,-1.4,30.27,SE,140,0.0,4.0,47,0.00,,,0.00,WeatherCatV1.13B119,2013-03-18 03:31:00,
2013-03-17 23:36:00,15.5,-2.0,30.27,SE,136,2.0,3.0,45,0.00,,,0.00,WeatherCatV1.13B119,2013-03-18 03:36:00,
2013-03-17 23:41:00,15.5,-1.5,30.27,ESE,122,2.0,3.0,46,0.00,,,0.00,WeatherCatV1.13B119,2013-03-18 03:41:00,
2013-03-17 23:46:00,15.3,-1.3,30.27,ESE,123,0.0,2.0,47,0.00,,,0.00,WeatherCatV1.13B119,2013-03-18 03:46:00,
2013-03-17 23:51:00,15.0,-2.5,30.27,SE,138,1.0,4.0,45,0.00,,,0.00,WeatherCatV1.13B119,2013-03-18 03:51:00,
2013-03-17 23:56:00,15.0,-1.1,30.27,SE,139,1.0,2.0,48,0.00,,,0.00,WeatherCatV1.13B119,2013-03-18 03:56:00,